This demonstration page uses our WeatherBlox Daily Observations layout. Learn more.

Left ArrowRight Arrow

40.97296, -117.73568

Hourly Observations for January 22, 2022

Temp ( °F °C ) Dew Point ( °F °C ) Humidity (%) Winds ( mph kmh ) Pressure ( in mb ) Visibility ( mi km ) Precip ( " mm )
12:56 am 00:56 Clear 30 -1.1 22 -5.6 72 72 N 5 7 30.43 1031 10 16 0.00 0.00
1:56 am 01:56 Clear 32 0 23 -5 69 69 NE 14 22 30.43 1030 10 16 0.00 0.00
2:56 am 02:56 Clear 30 -1.1 22 -5.6 72 72 NNE 12 19 30.43 1031 10 16 0.00 0.00
3:56 am 03:56 Clear 29 -1.7 22 -5.6 75 75 NNE 8 13 30.44 1031 10 16 0.00 0.00
4:56 am 04:56 Clear 27 -2.8 21 -6.1 78 78 N 8 13 30.45 1031 10 16 0.00 0.00
5:56 am 05:56 Clear 26 -3.3 21 -6.1 81 81 NNE 5 7 30.46 1032 10 16 0.00 0.00
6:56 am 06:56 Clear 24 -4.4 20 -6.7 84 84 WNW 6 9 30.48 1032 10 16 0.00 0.00
7:56 am 07:56 Sunny 29 -1.7 22 -5.6 75 75 Calm 30.49 1033 10 16 0.00 0.00
8:56 am 08:56 Sunny 34 1.1 23 -5 64 64 NNW 6 9 30.49 1032 10 16 0.00 0.00
9:56 am 09:56 Sunny 39 3.9 23 -5 53 53 NNE 12 19 30.47 1032 10 16 0.00 0.00
10:56 am 10:56 Sunny 41 5 24 -4.4 51 51 NNE 13 20 30.47 1032 10 16 0.00 0.00
11:56 am 11:56 Sunny 44 6.7 23 -5 43 43 NNE 15 24 30.42 1030 10 16 0.00 0.00
12:56 pm 12:56 Sunny 45 7.2 23 -5 42 42 NE 15 24 30.40 1030 10 16 0.00 0.00
1:56 pm 13:56 Sunny 47 8.3 22 -5.6 37 37 NE 13 20 30.38 1029 10 16 0.00 0.00
2:56 pm 14:56 Sunny 46 7.8 23 -5 40 40 NNE 15 24 30.40 1030 10 16 0.00 0.00
3:56 pm 15:56 Sunny 45 7.2 22 -5.6 40 40 NNE 14 22 30.40 1029 10 16 0.00 0.00
4:56 pm 16:56 Sunny 41 5 23 -5 49 49 NNE 15 24 30.41 1030 10 16 0.00 0.00
5:56 pm 17:56 Clear 38 3.3 23 -5 55 55 N 9 15 30.42 1030 10 16 0.00 0.00
6:56 pm 18:56 Clear 37 2.8 22 -5.6 54 54 N 10 17 30.44 1031 10 16 0.00 0.00
7:56 pm 19:56 Clear 37 2.8 23 -5 57 57 N 13 20 30.44 1031 10 16 0.00 0.00
8:56 pm 20:56 Clear 35 1.7 23 -5 61 61 NNE 13 20 30.45 1031 10 16 0.00 0.00
9:56 pm 21:56 Clear 34 1.1 22 -5.6 61 61 NNE 16 26 30.43 1031 10 16 0.00 0.00
10:56 pm 22:56 Clear 33 0.6 22 -5.6 64 64 N 9 15 30.45 1031 10 16 0.00 0.00
11:56 pm 23:56 Clear 32 0 21 -6.1 64 64 E 6 9 30.45 1031 10 16 0.00 0.00

Powered by AerisWeather